N7LK Weather Reports


Display with metric or nautical units.
time (UTC)temp
F
wind
direction
speed
MPH
gust
MPH
rain 1hr
in
rain 24hr
in
rain mn
in
humidity
%
barometer
mb
20260831120330 81 81 0.0 0.0 0.00 0.04 0.00 63 1010.5
20260831115336 81 81 0.0 6.0 0.00 0.04 0.00 63 1010.5
20260831114327 80 27 0.0 0.0 0.00 0.04 0.00 64 1010.3
20260831113353 80 320 0.0 0.0 0.00 0.04 0.00 63 1010.3
20260831112338 80 320 0.0 0.0 0.00 0.04 0.00 64 1010.3
20260831111344 80 320 0.0 0.0 0.00 0.04 0.00 64 1010.0
20260831110356 80 320 0.0 0.0 0.00 0.04 0.00 63 1009.7
20260831105403 81 252 0.0 1.0 0.00 0.04 0.00 62 1009.5
20260831104329 81 252 0.0 0.0 0.00 0.04 0.00 62 1009.4
20260831103336 81 252 0.0 1.0 0.00 0.04 0.00 61 1009.1
20260831102327 81 252 0.0 1.0 0.00 0.04 0.00 61 1009.1
20260831101335 81 207 0.0 1.0 0.00 0.04 0.00 61 1009.2
20260831100341 81 113 0.0 3.0 0.00 0.04 0.00 60 1009.3
20260831095327 81 163 1.0 7.0 0.00 0.04 0.00 60 1009.3
20260831094334 81 182 2.0 6.0 0.00 0.04 0.00 61 1009.4
20260831093344 82 167 1.0 8.0 0.00 0.04 0.00 61 1009.7
20260831092332 82 187 4.0 7.0 0.00 0.04 0.00 61 1009.7
20260831091339 82 144 3.0 10.0 0.00 0.04 0.00 62 1009.9
20260831090329 82 163 4.0 11.0 0.00 0.04 0.00 61 1009.7
20260831085356 82 173 3.0 7.0 0.00 0.04 0.00 60 1009.6
20260831084401 82 76 1.0 6.0 0.00 0.04 0.00 58 1009.5
20260831083328 82 156 4.0 6.0 0.00 0.04 0.00 59 1009.6
20260831082355 82 180 2.0 6.0 0.00 0.04 0.00 60 1009.7
20260831081326 82 127 2.0 5.0 0.00 0.04 0.00 59 1009.7
20260831080353 82 53 6.0 12.0 0.00 0.04 0.00 59 1009.8
20260831075338 81 340 5.0 11.0 0.00 0.04 0.00 61 1009.6
20260831074406 81 345 5.0 14.0 0.00 0.04 0.00 62 1009.6
20260831073331 81 334 8.0 17.0 0.00 0.04 0.00 64 1009.7
20260831072341 81 348 9.0 18.0 0.00 0.04 0.00 66 1009.8
20260831071347 81 360 7.0 20.0 0.00 0.04 0.00 67 1009.9
20260831070332 80 327 6.0 16.0 0.01 0.04 0.00 67 1009.9
20260831065400 80 331 12.0 24.0 0.01 0.04 0.04 68 1009.8
20260831064329 80 255 10.0 21.0 0.01 0.04 0.04 70 1009.6
20260831063335 80 24 11.0 25.0 0.02 0.04 0.04 70 1009.3
20260831062342 81 317 10.0 21.0 0.02 0.04 0.04 67 1009.6
20260831061329 82 11 12.0 23.0 0.03 0.04 0.04 66 1009.3
20260831060340 82 355 8.0 17.0 0.02 0.03 0.03 63 1009.2
20260831055327 82 42 0.0 3.0 0.03 0.03 0.03 61 1009.1
20260831054334 83 268 1.0 13.0 0.03 0.03 0.03 59 1009.2
20260831053342 82 242 4.0 12.0 0.02 0.02 0.02 60 1009.2
20260831052353 82 239 4.0 16.0 0.02 0.02 0.02 62 1009.4
20260831051339 82 225 11.0 23.0 0.01 0.01 0.01 62 1009.8
20260831050326 82 236 13.0 29.0 0.01 0.01 0.01 61 1010.0
20260831045333 84 232 12.0 23.0 0.00 0.00 0.00 58 1009.7
20260831044400 85 175 11.0 29.0 0.00 0.00 0.00 57 1008.9
20260831043329 87 186 12.0 23.0 0.00 0.00 0.00 55 1008.7
20260831042336 90 153 7.0 19.0 0.00 0.00 0.00 55 1007.8
20260831041402 93 211 11.0 22.0 0.00 0.00 0.00 43 1007.6
20260831040326 95 213 12.0 21.0 0.00 0.00 0.00 38 1007.7
20260831035337 99 170 13.0 27.0 0.00 0.00 0.00 33 1007.5
20260831034344 101 272 0.0 8.0 0.00 0.00 0.00 29 1007.1
20260831033332 101 312 1.0 7.0 0.00 0.00 0.00 29 1006.7
20260831032358 101 279 2.0 5.0 0.00 0.00 0.00 29 1006.8
20260831031347 101 316 1.0 3.0 0.00 0.00 0.00 29 1006.7
20260831030334 101 284 1.0 4.0 0.00 0.00 0.00 29 1006.5
20260831025341 101 258 3.0 8.0 0.00 0.00 0.00 29 1006.5
20260831024329 101 260 2.0 5.0 0.00 0.00 0.00 30 1006.4
20260831023340 101 278 2.0 4.0 0.00 0.00 0.00 30 1006.2
20260831022406 101 303 3.0 10.0 0.00 0.00 0.00 30 1006.1
20260831021331 102 300 1.0 5.0 0.00 0.00 0.00 30 1005.9
20260831020337 102 319 3.0 5.0 0.00 0.00 0.00 30 1005.8
20260831015348 102 313 2.0 8.0 0.00 0.00 0.00 30 1005.5
20260831014333 103 284 2.0 6.0 0.00 0.00 0.00 29 1005.4
20260831013340 103 324 1.0 7.0 0.00 0.00 0.00 29 1005.3
20260831012327 104 302 3.0 5.0 0.00 0.00 0.00 28 1005.3
20260831011339 104 303 3.0 8.0 0.00 0.00 0.00 28 1005.4
20260831010344 105 297 4.0 8.0 0.00 0.00 0.00 27 1005.4
20260831005350 105 11 2.0 5.0 0.00 0.00 0.00 28 1005.5
20260831004336 105 328 3.0 8.0 0.00 0.00 0.00 28 1005.5
20260831003327 105 333 3.0 6.0 0.00 0.00 0.00 28 1005.5
20260831002334 105 347 5.0 9.0 0.00 0.00 0.00 28 1005.5
20260831001340 105 334 3.0 11.0 0.00 0.00 0.00 28 1005.6
20260831000348 106 267 4.0 9.0 0.00 0.00 0.00 28 1005.7
20260830235333 107 275 6.0 9.0 0.00 0.00 0.00 27 1005.8
20260830234343 107 336 2.0 4.0 0.00 0.00 0.00 26 1005.8
20260830233331 107 208 0.0 8.0 0.00 0.00 0.00 27 1005.8
20260830232337 107 281 3.0 11.0 0.00 0.00 0.00 27 1006.1
20260830231345 107 250 3.0 8.0 0.00 0.00 0.00 27 1006.1
20260830230335 107 164 3.0 9.0 0.00 0.00 0.00 27 1006.2
20260830225402 107 190 5.0 10.0 0.00 0.00 0.00 26 1006.5
20260830224345 107 225 4.0 8.0 0.00 0.00 0.00 26 1006.6
20260830223333 107 243 4.0 7.0 0.00 0.00 0.00 26 1006.7
20260830222344 106 255 1.0 5.0 0.00 0.00 0.00 27 1006.8
20260830221331 106 261 3.0 8.0 0.00 0.00 0.00 26 1007.1
20260830220336 106 182 3.0 6.0 0.00 0.00 0.00 27 1007.3
20260830215344 106 223 6.0 8.0 0.00 0.00 0.00 27 1007.6
20260830214337 106 9 2.0 6.0 0.00 0.00 0.00 27 1007.8
20260830213343 105 309 2.0 6.0 0.00 0.00 0.00 28 1008.1
20260830212329 105 317 3.0 9.0 0.00 0.00 0.00 28 1008.2
20260830211336 106 267 4.0 10.0 0.00 0.00 0.00 28 1008.4
20260830210327 105 186 1.0 5.0 0.00 0.00 0.00 28 1008.6
20260830205355 104 255 2.0 6.0 0.00 0.00 0.00 28 1008.7
20260830204342 104 325 3.0 8.0 0.00 0.00 0.00 29 1009.1
20260830203330 104 195 2.0 6.0 0.00 0.00 0.00 29 1009.2
20260830202341 103 71 1.0 5.0 0.00 0.00 0.00 30 1009.4
20260830201327 103 67 3.0 8.0 0.00 0.00 0.00 29 1009.6
20260830200336 103 330 3.0 8.0 0.00 0.00 0.00 29 1009.7
20260830195327 103 349 4.0 8.0 0.00 0.00 0.00 29 1009.8
20260830194334 103 150 2.0 5.0 0.00 0.00 0.00 29 1009.9
20260830193341 103 287 1.0 3.0 0.00 0.00 0.00 30 1010.1
20260830192347 102 155 3.0 5.0 0.00 0.00 0.00 31 1010.3
20260830191333 102 298 2.0 9.0 0.00 0.00 0.00 31 1010.5
20260830190406 102 216 4.0 9.0 0.00 0.00 0.00 31 1010.6
20260830185331 101 192 2.0 8.0 0.00 0.00 0.00 31 1010.8
20260830184340 101 186 3.0 8.0 0.00 0.00 0.00 33 1010.9
20260830183347 100 59 3.0 8.0 0.00 0.00 0.00 32 1011.1
20260830182339 100 46 4.0 7.0 0.00 0.00 0.00 32 1011.2
20260830181343 100 208 2.0 5.0 0.00 0.00 0.00 32 1011.4
20260830180329 100 153 2.0 8.0 0.00 0.00 0.00 33 1011.5
20260830175335 100 185 4.0 9.0 0.00 0.00 0.00 33 1011.6
20260830174345 99 175 2.0 5.0 0.00 0.00 0.00 33 1011.7
20260830173333 99 151 6.0 11.0 0.00 0.00 0.00 34 1011.8
20260830172340 98 60 4.0 9.0 0.00 0.00 0.00 35 1011.8
20260830171326 98 134 4.0 8.0 0.00 0.00 0.00 35 1011.8
20260830170337 97 146 3.0 11.0 0.00 0.00 0.00 36 1011.8
20260830165326 97 132 5.0 10.0 0.00 0.00 0.00 36 1011.8
20260830164334 96 70 2.0 9.0 0.00 0.00 0.00 36 1011.8
20260830163341 96 82 3.0 8.0 0.00 0.00 0.00 36 1011.8
20260830162331 95 92 5.0 9.0 0.00 0.00 0.00 37 1011.9
20260830161338 95 73 3.0 8.0 0.00 0.00 0.00 37 1011.8
20260830160345 94 150 4.0 9.0 0.00 0.00 0.00 37 1011.8
20260830155332 93 109 5.0 9.0 0.00 0.00 0.00 39 1011.8
20260830154343 93 162 4.0 11.0 0.00 0.00 0.00 40 1011.8
20260830153331 92 162 6.0 11.0 0.00 0.00 0.00 40 1011.8
20260830152337 92 109 4.0 11.0 0.00 0.00 0.00 42 1011.8
20260830151329 91 95 3.0 10.0 0.00 0.00 0.00 42 1011.8
20260830150356 90 140 4.0 11.0 0.00 0.00 0.00 43 1011.7
20260830145400 90 96 5.0 9.0 0.00 0.00 0.00 44 1011.8
20260830144346 90 100 5.0 14.0 0.00 0.00 0.00 44 1011.9
20260830143332 89 101 5.0 10.0 0.00 0.00 0.00 44 1011.9
20260830142344 89 74 3.0 8.0 0.00 0.00 0.00 43 1011.8
20260830141331 89 133 2.0 10.0 0.00 0.00 0.00 44 1011.7
20260830140335 88 132 4.0 12.0 0.00 0.00 0.00 44 1011.6
20260830135341 88 91 3.0 10.0 0.00 0.00 0.00 44 1011.5
20260830134331 87 116 2.0 12.0 0.00 0.00 0.00 45 1011.4
20260830133355 87 119 3.0 11.0 0.00 0.00 0.00 46 1011.3
20260830132335 87 97 3.0 9.0 0.00 0.00 0.00 46 1011.1
20260830131343 87 78 1.0 7.0 0.00 0.00 0.00 47 1011.0
20260830130329 87 58 3.0 6.0 0.00 0.00 0.00 47 1010.8
20260830125340 87 92 2.0 6.0 0.00 0.00 0.00 47 1010.7
20260830124326 87 65 2.0 4.0 0.00 0.00 0.00 48 1010.4
20260830123332 87 67 0.0 2.0 0.00 0.00 0.00 48 1010.2
20260830122339 88 78 0.0 2.0 0.00 0.00 0.00 47 1010.0
20260830121331 88 58 0.0 5.0 0.00 0.00 0.00 47 1010.0
20260830120337 88 103 3.0 8.0 0.00 0.00 0.00 47 1010.0